Wind_Speed
39 38 44 46 50 54 53 56 61 61 57 55 57 57 49 46 45 41 35 31 35 36 34 35 33 33 38 36 32 33 33 33 29 28 17 19 23 25 24 29 37 48 41 39 39
41 42 38 42 49 50 48 53 56 57 60 63 63 60 48 51 50 48 48 48 46 47 46 44 38 38 36 29 29 38 40 40 32 26 21 22 25 29 31 33 38 39 43 42 35
42 43 43 42 43 47 48 49 54 59 63 64 63 61 59 61 52 49 48 46 47 47 46 40 36 37 36 33 30 36 41 34 25 29 19 21 19 23 31 32 33 36 36 34 33
33 41 43 44 43 45 48 48 49 56 63 66 63 62 63 60 61 57 52 49 46 44 42 39 40 43 45 45 41 45 43 35 35 39 26 21 20 23 28 27 30 35 29 30 23
32 25 40 41 39 39 39 42 45 50 56 59 59 60 66 66 60 58 54 52 51 47 47 47 49 48 52 51 50 53 54 49 46 33 33 27 22 26 22 26 31 31 28 26 19
34 35 32 41 42 39 36 34 36 40 49 55 61 63 64 59 51 55 59 60 56 63 65 65 62 56 62 61 60 57 58 55 41 35 30 27 25 24 21 19 28 26 22 20 22
41 38 37 41 43 37 35 40 37 37 39 47 55 59 56 47 51 54 60 63 66 66 65 60 58 62 64 62 62 62 55 49 36 34 23 25 27 20 21 20 25 30 25 21 24
44 45 44 43 43 43 46 42 42 43 41 36 37 40 38 35 49 47 42 27 28 28 32 31 34 48 49 51 47 38 36 33 29 21 17 19 23 17 19 23 29 28 22 28 32
48 48 48 49 49 50 49 48 48 48 46 47 42 43 27 28 27 34 42 28 28 24 27 30 33 24 28 23 23 28 26 23 13 12 12 12 21 23 26 20 24 27 30 32 36
54 54 55 54 52 54 55 54 53 49 51 50 49 43 35 32 36 41 43 38 36 34 34 31 29 33 26 28 17 17 20 17 9 5 8 12 27 26 26 22 27 32 33 34 36
63 61 60 60 60 58 56 58 58 58 55 49 49 46 44 43 39 38 42 42 40 39 35 35 39 30 21 21 21 23 21 16 16 4 18 25 23 19 25 25 26 26 21 22 31
71 70 69 67 66 64 62 60 63 64 59 54 50 44 45 48 44 42 43 46 46 40 38 37 34 23 20 25 22 23 23 19 14 12 26 16 20 20 32 26 24 24 24 27 26
78 77 77 75 72 71 69 67 66 67 65 59 55 50 41 47 46 45 45 46 48 47 44 40 30 24 28 28 28 25 24 15 20 20 24 20 25 28 32 25 22 21 24 30 31
79 78 77 77 79 76 74 73 71 70 68 60 58 54 48 45 42 39 40 44 50 50 44 43 38 34 35 33 29 29 20 20 23 23 31 29 35 32 24 18 17 20 24 32 37
65 63 65 66 71 75 78 75 74 71 71 64 59 56 53 53 42 37 33 37 41 35 36 32 31 38 36 29 27 21 23 22 18 15 18 25 29 16 21 21 18 29 22 32 38
40 40 41 42 45 56 65 71 70 69 71 67 64 59 56 53 51 45 36 38 35 35 35 30 27 37 35 30 28 22 24 21 15 19 28 23 22 3 8 14 19 25 30 34 39
39 40 42 41 41 44 48 53 59 74 66 65 61 54 60 52 46 49 51 45 42 38 34 30 29 32 30 34 32 31 24 26 26 31 34 23 23 3 8 12 18 24 27 29 25
39 40 39 37 34 38 40 45 61 67 66 63 49 39 39 32 52 45 43 50 47 38 34 34 34 32 32 34 33 32 26 33 31 32 25 12 22 9 17 15 16 24 24 25 25
27 24 26 29 33 36 36 41 48 49 58 60 48 51 42 33 31 23 47 47 47 44 39 36 32 27 30 29 29 30 33 24 29 27 21 11 15 4 15 14 20 25 25 26 20
25 24 28 28 27 31 33 29 29 42 42 43 62 63 54 51 44 41 29 54 48 44 44 40 36 27 28 27 29 34 27 29 34 33 32 24 22 13 19 24 25 29 27 28 21
27 25 24 19 18 20 22 19 22 33 38 48 63 67 60 57 52 47 53 51 49 48 45 43 41 32 29 36 35 35 37 38 33 31 27 22 23 17 21 22 25 23 28 28 16
24 19 12 11 10 8 10 17 21 23 32 44 59 76 69 61 62 49 50 46 34 42 50 47 46 43 38 29 28 34 37 39 41 36 25 21 15 17 20 23 26 22 26 27 12
19 6 6 7 6 14 14 16 20 23 34 41 55 77 67 65 62 57 54 54 48 43 47 47 50 47 39 38 37 32 33 38 43 34 27 22 17 26 23 26 25 21 21 17 10
13 4 5 7 8 21 23 22 21 21 28 37 49 61 68 69 67 65 59 58 53 52 53 40 46 54 50 45 40 37 38 39 43 41 30 25 17 23 27 28 23 24 22 9 7
11 3 7 11 14 18 24 27 29 28 27 24 43 57 62 70 66 69 67 62 57 58 48 45 48 52 51 44 41 39 38 36 33 32 34 23 24 29 25 23 20 27 17 5 7
15 7 10 8 10 5 8 13 9 14 24 21 36 51 55 70 65 68 70 68 60 60 53 49 52 49 53 51 48 45 41 39 31 31 38 29 25 28 24 23 23 28 17 6 6
19 14 10 8 8 7 6 10 16 10 20 19 20 37 55 58 58 71 71 73 64 63 57 56 58 41 55 55 50 49 48 43 32 32 31 33 26 32 33 32 29 30 19 11 6
Wind_Direction
259 255 249 247 247 249 250 249 245 247 245 246 254 258 243 247 248 245 247 250 257 262 264 258 263 264 266 273 278 278 276 293 289 298 276 246 274 272 274 280 293 291 286 300 322
256 252 246 243 244 247 248 248 247 246 249 250 251 254 249 242 246 249 245 252 255 260 262 261 264 263 266 273 270 275 277 294 286 303 281 266 261 274 282 283 279 287 297 313 315
259 252 246 246 249 246 246 246 247 248 245 249 252 251 248 254 246 244 247 250 255 254 255 256 252 257 262 266 272 280 283 281 296 299 278 294 289 277 274 277 276 288 302 317 318
277 258 254 255 252 250 248 247 250 247 244 248 249 244 245 239 249 244 246 252 255 249 246 251 258 266 268 269 275 277 278 281 286 296 288 303 289 279 282 282 281 289 307 309 316
273 283 255 249 249 249 248 249 249 249 247 245 244 240 244 250 250 250 245 246 244 243 251 254 255 263 269 280 276 274 277 280 275 284 281 291 283 277 283 297 286 292 303 308 303
273 263 265 245 247 244 248 249 251 251 248 242 242 245 245 249 245 245 252 252 247 254 256 256 262 261 265 266 270 277 277 284 281 272 268 278 272 287 299 303 289 302 297 311 298
273 268 261 254 252 246 251 250 250 252 248 243 241 246 249 248 242 243 248 253 256 260 263 264 260 264 265 267 266 266 272 275 261 265 267 272 284 291 304 311 295 302 314 314 316
272 270 265 261 261 255 254 252 253 247 243 237 244 247 246 240 241 246 259 249 257 250 252 245 252 251 259 264 263 260 251 253 259 260 264 269 289 296 307 300 303 305 307 310 315
275 272 268 262 259 258 257 258 252 248 245 243 240 242 245 232 229 240 238 237 242 249 252 253 258 249 251 244 232 232 248 263 266 258 257 269 302 308 298 286 303 310 309 305 310
274 270 268 266 261 256 255 256 257 250 246 244 244 245 250 239 232 228 235 240 246 245 244 245 251 250 241 243 253 265 267 265 244 206 307 288 277 277 295 301 310 316 310 297 296
273 270 267 265 262 258 255 254 252 251 250 247 243 244 244 242 233 230 236 242 243 241 237 237 241 238 248 253 255 253 250 230 191 165 280 277 260 277 306 290 305 302 283 299 315
265 266 265 262 259 258 254 250 250 251 248 248 248 244 245 251 245 236 234 239 243 244 246 243 238 240 241 242 233 233 231 226 237 182 261 278 289 297 291 308 282 302 317 324 325
267 264 261 258 255 254 252 249 246 250 249 243 245 245 242 243 248 244 237 236 238 241 242 239 240 238 236 236 237 234 232 225 246 200 216 251 257 263 267 275 300 303 297 304 316
268 264 261 259 256 251 247 246 245 246 249 246 242 243 242 245 243 250 244 240 236 239 241 244 235 229 229 231 235 235 234 234 238 220 220 232 253 253 265 299 271 282 273 290 306
278 275 272 266 259 254 250 245 242 240 244 246 248 244 241 242 248 243 244 238 238 237 237 245 242 229 233 237 240 247 237 241 236 231 251 249 258 284 276 266 266 264 285 295 311
282 277 272 267 261 256 253 250 245 238 237 242 246 246 244 239 238 234 232 230 226 229 232 230 225 222 228 235 235 235 231 221 211 238 257 267 273 6 223 261 310 311 311 320 316
284 281 278 274 269 262 256 251 247 238 234 236 241 245 244 240 236 234 231 227 226 226 228 229 228 223 221 226 220 218 212 209 214 225 239 250 264 255 225 263 276 317 318 328 319
287 283 280 275 263 261 254 249 245 236 232 231 225 218 218 249 243 235 233 227 228 227 231 232 226 227 220 225 223 223 205 224 210 227 246 260 241 313 265 225 263 304 300 332 322
297 290 281 275 267 263 260 252 249 235 230 220 201 202 200 195 229 231 234 229 228 230 231 230 226 225 230 231 222 209 219 226 222 236 251 229 254 318 292 277 268 288 299 320 321
295 291 292 289 273 260 253 256 242 229 223 213 200 196 188 197 201 204 215 224 220 224 225 232 234 225 232 219 225 218 213 219 222 223 232 229 234 236 272 290 293 306 310 324 322
306 298 297 287 281 257 256 255 240 230 218 211 201 197 192 193 196 196 217 210 216 221 223 222 228 218 217 222 217 211 202 221 238 244 239 245 243 242 244 276 283 297 309 326 307
315 296 286 281 295 280 247 235 239 228 224 212 204 194 198 196 197 194 208 204 210 218 220 220 223 224 225 222 220 224 204 209 225 232 230 236 214 209 244 257 277 293 310 318 283
333 295 211 248 284 311 289 261 258 242 226 228 209 200 199 197 193 193 195 190 191 202 218 214 216 221 217 210 209 224 215 213 222 234 231 237 215 244 260 275 285 297 298 324 278
338 327 183 282 242 256 262 260 259 256 240 235 224 212 202 196 192 191 197 192 186 195 206 206 212 217 217 222 221 211 218 220 217 225 227 233 211 220 242 257 274 284 300 306 266
337 250 231 248 268 274 271 271 263 254 252 238 226 225 204 199 194 191 194 189 187 190 194 198 203 210 216 216 211 223 226 226 220 231 235 236 209 221 240 260 268 280 306 300 253
340 293 249 262 279 290 326 339 298 280 231 222 224 227 209 200 199 193 193 186 191 187 187 194 196 205 210 213 210 207 226 234 232 234 237 230 216 224 249 265 269 278 297 311 216
333 309 259 261 262 296 329 359 330 286 216 207 224 220 220 205 203 196 193 188 187 187 185 194 197 197 207 204 203 205 212 222 232 235 237 237 223 213 217 243 259 271 297 314 254
Height
5808 5809 5810 5811 5813 5817 5819 5823 5827 5831 5833 5835 5837 5840 5844 5848 5850 5853 5857 5858 5859 5861 5864 5863 5865 5865 5865 5868 5867 5865 5863 5868 5866 5864 5864 5861 5860 5860 5858 5856 5853 5845 5846 5845 5843
5802 5803 5803 5805 5807 5809 5809 5812 5815 5818 5821 5824 5829 5831 5833 5837 5839 5844 5849 5849 5851 5853 5855 5856 5858 5856 5857 5862 5862 5858 5855 5862 5860 5858 5857 5858 5857 5856 5856 5854 5848 5840 5836 5838 5839
5791 5792 5794 5797 5799 5799 5801 5802 5804 5806 5809 5813 5817 5820 5823 5825 5829 5838 5839 5843 5843 5845 5845 5846 5848 5848 5848 5852 5857 5853 5849 5853 5854 5853 5852 5851 5852 5851 5850 5847 5845 5840 5837 5835 5834
5783 5782 5783 5784 5785 5787 5788 5790 5792 5793 5796 5800 5804 5809 5812 5814 5816 5826 5832 5835 5837 5837 5836 5839 5840 5838 5841 5843 5848 5840 5844 5845 5845 5846 5844 5845 5845 5845 5843 5843 5838 5835 5834 5832 5830
5777 5775 5774 5774 5775 5775 5775 5777 5779 5781 5784 5788 5792 5796 5800 5800 5810 5818 5822 5825 5826 5826 5830 5830 5828 5832 5829 5834 5836 5832 5835 5839 5839 5840 5839 5841 5840 5838 5838 5837 5833 5830 5828 5828 5826
5769 5769 5767 5767 5767 5767 5768 5769 5769 5770 5772 5775 5779 5782 5785 5783 5810 5811 5809 5812 5816 5817 5820 5819 5821 5824 5816 5819 5822 5827 5826 5827 5830 5833 5833 5834 5834 5831 5834 5832 5827 5827 5825 5825 5822
5759 5759 5759 5759 5760 5758 5758 5760 5760 5760 5761 5764 5767 5769 5768 5782 5795 5799 5799 5800 5804 5805 5806 5811 5811 5807 5811 5808 5815 5817 5818 5820 5821 5824 5828 5828 5824 5827 5827 5827 5823 5821 5820 5820 5816
5748 5747 5747 5747 5747 5747 5748 5750 5751 5752 5753 5754 5757 5759 5762 5775 5782 5786 5792 5790 5794 5791 5795 5798 5798 5797 5798 5802 5804 5807 5809 5809 5815 5821 5824 5822 5819 5824 5823 5821 5821 5817 5816 5812 5808
5737 5734 5733 5733 5734 5734 5735 5737 5740 5740 5744 5747 5749 5751 5758 5767 5774 5782 5776 5784 5785 5787 5789 5791 5789 5790 5793 5795 5796 5801 5802 5807 5813 5815 5818 5815 5813 5815 5818 5819 5815 5812 5810 5806 5802
5723 5722 5719 5719 5719 5721 5722 5723 5723 5727 5731 5734 5738 5743 5752 5762 5763 5767 5770 5774 5776 5779 5779 5783 5783 5782 5787 5788 5794 5799 5800 5802 5807 5811 5809 5810 5810 5812 5813 5811 5810 5808 5806 5803 5799
5703 5703 5703 5702 5702 5704 5708 5710 5710 5712 5715 5723 5729 5733 5739 5744 5751 5757 5760 5763 5767 5767 5771 5776 5773 5777 5786 5789 5791 5792 5793 5796 5801 5803 5806 5808 5808 5808 5808 5809 5805 5804 5802 5801 5797
5681 5680 5679 5680 5682 5685 5689 5692 5691 5694 5702 5708 5715 5721 5730 5733 5739 5746 5752 5753 5755 5760 5765 5766 5765 5777 5782 5782 5784 5785 5787 5791 5794 5796 5797 5802 5803 5803 5803 5803 5804 5801 5797 5794 5794
5652 5652 5652 5654 5656 5660 5666 5671 5674 5675 5684 5698 5704 5710 5720 5722 5723 5733 5739 5741 5744 5750 5753 5756 5767 5772 5772 5775 5777 5780 5783 5787 5791 5794 5796 5798 5798 5801 5802 5801 5798 5795 5791 5789 5790
5620 5621 5622 5624 5631 5632 5639 5647 5654 5659 5668 5682 5692 5698 5706 5712 5713 5720 5725 5728 5731 5735 5745 5745 5757 5760 5762 5765 5770 5773 5782 5783 5786 5789 5789 5794 5791 5794 5795 5795 5794 5790 5787 5785 5784
5591 5591 5593 5597 5601 5605 5613 5623 5631 5645 5652 5674 5679 5686 5694 5697 5710 5710 5716 5717 5720 5731 5735 5740 5747 5751 5754 5762 5766 5773 5776 5778 5781 5783 5785 5788 5787 5790 5792 5791 5788 5783 5787 5782 5779
5575 5575 5575 5577 5581 5581 5589 5596 5607 5624 5640 5657 5661 5671 5675 5688 5693 5697 5703 5706 5714 5719 5723 5730 5736 5739 5748 5755 5760 5765 5768 5772 5775 5778 5775 5781 5784 5786 5785 5785 5782 5781 5781 5779 5776
5564 5563 5562 5564 5565 5567 5572 5576 5585 5600 5639 5647 5655 5650 5660 5671 5678 5682 5689 5694 5702 5709 5716 5724 5728 5734 5739 5744 5750 5754 5762 5764 5767 5768 5767 5778 5779 5782 5783 5782 5781 5777 5777 5777 5774
5551 5550 5549 5548 5549 5550 5555 5559 5562 5600 5614 5629 5632 5630 5631 5649 5662 5670 5671 5685 5693 5704 5709 5716 5721 5726 5733 5736 5742 5748 5754 5756 5758 5763 5769 5775 5773 5778 5776 5778 5777 5776 5776 5774 5771
5541 5539 5538 5537 5538 5538 5542 5544 5558 5581 5589 5600 5594 5610 5619 5627 5632 5652 5660 5675 5688 5696 5704 5709 5715 5723 5727 5734 5738 5743 5744 5756 5758 5763 5766 5769 5770 5773 5775 5775 5775 5774 5774 5773 5768
5533 5532 5529 5527 5525 5525 5529 5537 5546 5551 5560 5565 5576 5586 5597 5605 5618 5623 5646 5663 5677 5685 5696 5704 5707 5718 5724 5728 5732 5734 5746 5750 5751 5755 5759 5763 5766 5768 5769 5769 5770 5770 5772 5770 5767
5526 5525 5522 5518 5518 5518 5522 5527 5532 5531 5537 5546 5557 5570 5585 5591 5601 5613 5635 5651 5667 5679 5685 5694 5699 5711 5715 5716 5724 5729 5733 5742 5749 5752 5755 5759 5763 5765 5766 5767 5765 5767 5768 5766 5763
5517 5515 5515 5515 5516 5515 5518 5522 5523 5527 5533 5536 5545 5561 5569 5577 5591 5606 5624 5639 5658 5665 5672 5683 5690 5697 5706 5714 5720 5726 5730 5736 5739 5745 5750 5755 5759 5761 5761 5763 5765 5766 5764 5764 5761
5512 5509 5511 5513 5514 5515 5516 5517 5518 5521 5523 5527 5532 5544 5552 5568 5585 5597 5605 5617 5629 5642 5658 5672 5677 5687 5699 5704 5710 5716 5723 5731 5736 5741 5744 5750 5756 5755 5758 5759 5760 5761 5762 5761 5759
5510 5509 5510 5511 5512 5511 5511 5514 5514 5515 5518 5522 5525 5528 5540 5555 5568 5582 5595 5604 5616 5625 5639 5652 5668 5674 5684 5695 5706 5711 5717 5725 5730 5732 5740 5744 5752 5753 5755 5755 5757 5758 5759 5758 5757
5508 5508 5508 5508 5508 5507 5506 5508 5507 5509 5510 5515 5520 5524 5532 5545 5555 5569 5579 5595 5606 5616 5630 5643 5652 5666 5679 5690 5698 5706 5710 5716 5721 5728 5732 5742 5746 5746 5749 5750 5753 5752 5755 5756 5755
5506 5505 5505 5506 5505 5505 5503 5502 5501 5500 5504 5511 5514 5520 5527 5536 5543 5558 5572 5586 5597 5611 5622 5632 5643 5659 5668 5681 5689 5694 5703 5708 5717 5724 5727 5734 5741 5743 5743 5744 5747 5747 5752 5754 5753
5504 5502 5501 5502 5502 5502 5502 5500 5502 5500 5502 5505 5508 5509 5516 5526 5532 5547 5560 5574 5588 5600 5612 5624 5637 5647 5656 5673 5682 5683 5692 5701 5710 5716 5722 5725 5737 5740 5742 5743 5745 5744 5747 5750 5751